Location: Cincinnati Observatory Center
(39.1389°N, 84.4225°W)
Time: 09:44:59
(UTC-04:00)

HST - Visible Passes

Search period start: 22 October 2014 00:00
Search period end: 01 November 2014 00:00
Orbit: 546 x 550 km, 28.5° (Epoch: 22 October)

Date Brightness Start Highest point End Pass type
(mag) Time Alt. Az. Time Alt. Az. Time Alt. Az.
25 Oct 3.3 20:49:46 10° SSW 20:50:43 13° S 20:50:43 13° S visible
26 Oct 3.0 20:42:04 10° SSW 20:43:54 16° S 20:43:54 16° S visible
27 Oct 2.8 20:34:29 10° SW 20:37:03 18° S 20:37:03 18° S visible
28 Oct 2.7 20:26:57 10° SW 20:29:53 19° S 20:30:10 18° S visible
29 Oct 2.7 20:19:29 10° SW 20:22:28 19° S 20:23:16 18° SSE visible
30 Oct 2.8 20:12:05 10° SW 20:15:02 19° S 20:16:23 16° SSE visible
31 Oct 2.9 20:04:43 10° SW 20:07:36 18° S 20:09:31 14° SSE visible
